Content
SEND FEEDBACK

Daily
Averages
Monthly
Summary
United States of America

INARAJAN, GUAM


Home > North America > United States > Guam
Elevation: 280 feet     Latitude: 13 18N     Longitude: 144 44E

WEATHER
 
SELECT A DAY
Number of Records: 357,395;   Date Range: 1/1/95 - 12/27/14
 
SHARE

PRINT THIS DATA

[ ← Previous Day ]
WEATHER ALMANAC - AUGUST 25, 2014
[ Next Day → ]
[ °C ]   °F
Weather ElementAverageHighLow
Temperature78.3 °F83.3 °F (4:58 pm)73.9 °F (7:58 pm)
Dewpoint75.5 °F78.8 °F (8:53 am)68.4 °F (7:58 pm)
Humidity91.2 %100 % (6:08 am)81 % (3:58 pm)
Barometer29.85 in29.90 in (12:13 am)29.74 in (3:58 am)
Wind Speed7.7 mph17.3 mph (1:32 pm)
Weather ElementAverage
Visibility7.4 mi
Wind DirectionSSE (150.3 °)

Weather ElementTotal
Precipitation1.29 in
Cooling Degree Days13.6 (Base 65)
Growing Degree Days28.6 (Base 50)
Averaged from 73 records on August 25, 2014
WEATHER CONDITIONS BREAKOUT
WIND DIRECTION BREAKOUT
WEATHER BY HOUR - AUGUST 25, 2014
[ °C ]   °F
Local TimeTemperatureDewpointHumidityBarometerVisibilityWind DirectionWind SpeedGust SpeedPrecipitationEventsConditions
12:58 AM80.8 °F77.0 °F88 %29.86 in10.0 miNE (50°)8.1 mphScattered Clouds
1:03 AM80.6 °F77.0 °F89 %29.88 in10.0 miENE (60°)6.9 mphMostly Cloudy
1:08 AM80.6 °F77.0 °F89 %29.87 in10.0 miENE (60°)9.2 mphScattered Clouds
1:55 AM80.6 °F75.2 °F84 %29.87 in10.0 miNNE (30°)9.2 mphRainLight Rain
1:58 AM80.6 °F75.2 °F84 %29.84 in10.0 miNNE (30°)8.1 mphRainLight Rain
2:06 AM78.8 °F75.2 °F89 %29.87 in10.0 miNE (50°)5.8 mphPartly Cloudy
2:39 AM78.8 °F75.2 °F89 %29.85 in10.0 miEast (80°)2.3 mphLight Drizzle
2:58 AM79.5 °F75.6 °F88 %29.82 in6.0 miEast (100°)6.9 mph0.00 inRainLight Rain
3:13 AM78.8 °F77.0 °F94 %29.85 in2.0 miESE (110°)8.1 mphRainHeavy Rain
3:18 AM78.8 °F77.0 °F94 %29.85 in1.8 miEast (90°)8.1 mphRainLight Rain
3:23 AM78.8 °F75.2 °F89 %29.85 in2.5 miESE (110°)4.6 mphRainHeavy Rain
3:28 AM77.0 °F75.2 °F94 %29.85 in5.0 miESE (110°)3.5 mphRainLight Rain
3:31 AM77.0 °F75.2 °F94 %29.85 in10.0 miESE (120°)2.3 mphRain-ThunderstormLight Thunderstorms and Rain
3:32 AM77.0 °F75.2 °F94 %29.85 in10.0 miESE (120°)3.5 mphThunderstormThunderstorm
3:37 AM78.8 °F75.2 °F89 %29.85 in10.0 miSE (140°)3.5 mphThunderstormThunderstorm
3:46 AM78.8 °F77.0 °F94 %29.85 in10.0 miSE (140°)2.3 mphPartly Cloudy
3:58 AM78.1 °F76.3 °F94 %29.81 in10.0 miSSE (160°)3.5 mph0.18 inClear
4:58 AM76.8 °F75.6 °F96 %29.81 in10.0 miNW (310°)4.6 mphClear
5:58 AM77.0 °F75.9 °F96 %29.82 in10.0 miCalmClear
5:59 AM77.0 °F75.2 °F94 %29.85 in10.0 miCalmThunderstormThunderstorm
6:00 AM77.0 °F75.2 °F94 %29.85 in10.0 miWNW (300°)1.2 mphRain-ThunderstormLight Thunderstorms and Rain
6:14 AM77.0 °F77.0 °F100 %29.84 in10.0 miWest (260°)4.6 mphRain-ThunderstormLight Rain
6:24 AM77.0 °F77.0 °F100 %29.86 in2.5 miNW (320°)5.8 mphRainLight Rain
6:25 AM77.0 °F77.0 °F100 %29.86 in2.5 miNNW (330°)5.8 mphRain-ThunderstormThunderstorms and Rain
6:35 AM77.0 °F75.2 °F94 %29.87 in1.0 miNorth (10°)9.2 mphRain-ThunderstormHeavy Thunderstorms and Rain
6:40 AM77.0 °F75.2 °F94 %29.88 in0.5 miNNW (330°)5.8 mphFog-Rain-ThunderstormHeavy Thunderstorms and Rain
6:45 AM77.0 °F75.2 °F94 %29.88 in0.5 miWNW (300°)4.6 mphFog-Rain-ThunderstormHeavy Thunderstorms and Rain
6:50 AM77.0 °F75.2 °F94 %29.88 in0.8 miWest (270°)3.5 mphRain-ThunderstormHeavy Thunderstorms and Rain
6:55 AM77.0 °F75.2 °F94 %29.89 in1.0 miWNW (300°)10.4 mphRain-ThunderstormThunderstorms and Rain
6:58 AM77.0 °F75.2 °F94 %29.87 in0.8 miNW (310°)8.1 mph0.55 inRain-ThunderstormHeavy Thunderstorms and Rain
7:03 AM75.2 °F73.4 °F94 %29.90 in0.5 miWNW (300°)6.9 mphFog-Rain-ThunderstormHeavy Thunderstorms and Rain
7:08 AM75.2 °F73.4 °F94 %29.90 in0.5 miWest (280°)9.2 mphFog-Rain-ThunderstormHeavy Thunderstorms and Rain
7:13 AM75.2 °F73.4 °F94 %29.90 in1.0 miWest (270°)10.4 mphRain-ThunderstormLight Thunderstorms and Rain
7:18 AM75.2 °F73.4 °F94 %29.90 in7.0 miWSW (240°)6.9 mphRain-ThunderstormLight Thunderstorms and Rain
7:23 AM75.2 °F73.4 °F94 %29.90 in8.0 miWSW (240°)8.1 mphRain-ThunderstormLight Thunderstorms and Rain
7:33 AM75.2 °F73.4 °F94 %29.90 in2.0 miWest (270°)8.1 mphRain-ThunderstormHeavy Thunderstorms and Rain
7:38 AM75.2 °F73.4 °F94 %29.90 in3.0 miWNW (300°)6.9 mphRain-ThunderstormLight Thunderstorms and Rain
7:42 AM75.2 °F73.4 °F94 %29.89 in1.8 miWNW (300°)5.8 mphRain-ThunderstormHeavy Rain
7:47 AM75.2 °F73.4 °F94 %29.90 in1.2 miNW (310°)6.9 mphRainRain
7:52 AM75.2 °F73.4 °F94 %29.89 in2.5 miNW (310°)8.1 mphRain-ThunderstormLight Rain
7:57 AM75.2 °F73.4 °F94 %29.88 in8.0 miNW (310°)8.1 mphRain-ThunderstormLight Rain
7:58 AM75.2 °F73.8 °F95 %29.86 in8.0 miNW (310°)8.1 mph0.48 inRain-ThunderstormLight Rain
8:03 AM75.2 °F73.4 °F94 %29.88 in9.0 miWNW (290°)8.1 mphRain-ThunderstormLight Rain
8:13 AM75.2 °F73.4 °F94 %29.87 in10.0 miWNW (290°)4.6 mphPartly Cloudy
8:58 AM76.6 °F73.0 °F89 %29.84 in10.0 miNorth (360°)3.5 mph0.00 inClear
9:58 AM81.0 °F76.8 °F87 %29.84 in10.0 miNNE (20°)6.9 mphClear
10:58 AM83.3 °F76.8 °F81 %29.86 in10.0 miESE (110°)6.9 mphScattered Clouds
11:15 AM82.4 °F77.0 °F84 %29.88 in6.0 miSE (130°)9.2 mphRainHeavy Rain
11:49 AM80.6 °F77.0 °F89 %29.86 in10.0 miNNE (30°)5.8 mphPartly Cloudy
11:58 AM80.8 °F77.4 °F89 %29.82 in10.0 miNNE (20°)8.1 mph0.04 inClear
12:58 PM82.0 °F78.6 °F89 %29.78 in10.0 miNNE (30°)12.7 mphScattered Clouds
1:08 PM82.4 °F78.8 °F89 %29.81 in10.0 miNE (40°)12.7 mphMostly Cloudy
1:28 PM82.4 °F78.8 °F89 %29.80 in10.0 miNNE (30°)11.5 mphMostly Cloudy
1:48 PM82.4 °F78.8 °F89 %29.79 in10.0 miNE (50°)9.2 mphMostly Cloudy
1:58 PM82.6 °F77.4 °F84 %29.76 in10.0 miENE (70°)6.9 mphScattered Clouds
2:58 PM81.5 °F76.3 °F84 %29.77 in10.0 miENE (70°)13.8 mphClear
3:35 PM80.6 °F77.0 °F89 %29.84 in10.0 miNE (40°)17.3 mphRainLight Rain
3:58 PM79.2 °F77.2 °F94 %29.79 in7.0 miNE (50°)15.0 mph0.02 inRainLight Rain
4:58 PM79.0 °F76.3 °F91 %29.74 in10.0 miEast (100°)3.5 mph0.01 inRainLight Rain
5:37 PM75.2 °F73.4 °F94 %29.80 in10.0 miEast (80°)11.5 mphClear
5:58 PM74.8 °F71.6 °F90 %29.75 in10.0 miESE (110°)15.0 mph0.01 inClear
6:58 PM75.6 °F70.7 °F85 %29.78 in10.0 miEast (90°)8.1 mphClear
7:58 PM73.9 °F68.4 °F83 %29.82 in10.0 miEast (80°)15.0 mphClear
8:58 PM80.6 °F77.0 °F89 %29.82 in10.0 miENE (70°)12.7 mphMostly Cloudy
9:13 PM80.6 °F77.0 °F89 %29.85 in10.0 miENE (70°)9.2 mphScattered Clouds
9:18 PM80.6 °F77.0 °F89 %29.85 in10.0 miENE (70°)12.7 mphMostly Cloudy
9:43 PM80.6 °F77.0 °F89 %29.85 in10.0 miEast (80°)8.1 mphScattered Clouds
9:58 PM79.9 °F77.0 °F91 %29.83 in10.0 miEast (100°)5.8 mphPartly Cloudy
10:43 PM80.6 °F77.0 °F89 %29.87 in10.0 miEast (80°)11.5 mphMostly Cloudy
10:53 PM80.6 °F77.0 °F89 %29.87 in10.0 miEast (80°)13.8 mphScattered Clouds
10:58 PM80.1 °F76.8 °F90 %29.83 in10.0 miEast (80°)11.5 mphScattered Clouds
11:53 PM80.6 °F77.0 °F89 %29.86 in10.0 miEast (100°)8.1 mphMostly Cloudy
11:58 PM80.6 °F77.0 °F89 %29.82 in10.0 miESE (110°)9.2 mphMostly Cloudy
Hourly data recorded from PGUA, located miles away from Inarajan, Guam







STORIES FROM OUR PARTNERS